Flag for French Polynesia Weather past 2 weeks in Papeete, Tahiti, French Polynesia

Now
84 °F

Scattered clouds.


Feels Like: 91 °F
Forecast: 76 / 85 °F
Wind: 9 mph from Northeast

Location: Tahiti-Faaa

Current Time: Sep 23, 2014 at 4:57:37 PM

Latest Report: Sep 23, 2014 at 4:30 PM


Visibility: N/A

Pressure: 29.95 "Hg

Humidity: 70%

Dew point: 73 °F

Location of PapeeteLocation

Historic Weather in Papeete — Graph

°F

Papeete temperature yesterday

Maximum temperature yesterday: 86 °F (at 11:30 AM)
Minimum temperature yesterday: 75 °F (at 1:30 AM)
Average temperature yesterday: 81 °F

Past Weeks' High & Low Weather Summary

 TemperatureHumidityPressure
High86 °F (Sep 19, 12:30 PM)94% (Sep 9, 12:00 AM)30.01 "Hg (Sep 9, 12:00 AM)
Low70 °F (Sep 17, 5:00 AM)55% (Sep 16, 11:30 AM)29.83 "Hg (Sep 12, 3:00 PM)
Average79 °F74%29.93 "Hg
* Reported Sep 8 3:00 PM — Sep 23 3:30 PM, Papeete, Weather by CustomWeather, © 2014

Note: Actual official high and low records may vary slightly from our data, if they occured in-between our weather recording intervals... More about our weather records

Advertising

Papeete weather history for previous 24 hours

 ConditionsComfort  
Time TempWeatherWind HumidityBarometerVisibility
3:30 PM
Sep 23
84 °FScattered clouds.10 mph66%29.92 "HgN/A
3:00 PM84 °FScattered clouds.10 mph70%29.92 "HgN/A
2:30 PM84 °FScattered clouds.10 mph70%29.95 "HgN/A
2:00 PM86 °FScattered clouds.10 mph66%29.95 "HgN/A
1:30 PM86 °FScattered clouds.10 mph66%29.95 "HgN/A
1:00 PM84 °FPassing clouds.12 mph70%29.95 "HgN/A
12:30 PM86 °FPassing clouds.13 mph66%29.98 "HgN/A
12:00 PM84 °FScattered clouds.13 mph70%29.98 "HgN/A
11:30 AM84 °FScattered clouds.14 mph70%29.98 "HgN/A
11:00 AM86 °FScattered clouds.14 mph66%30.01 "HgN/A
10:30 AM84 °FScattered clouds.15 mph70%30.01 "HgN/A
10:00 AM84 °FScattered clouds.13 mph70%30.01 "HgN/A
9:30 AM84 °FPartly sunny.13 mph66%30.01 "HgN/A
9:00 AM84 °FPartly sunny.15 mph70%30.01 "HgN/A
8:30 AM84 °FPartly sunny.13 mph66%30.01 "HgN/A
8:00 AM82 °FPartly sunny.12 mph70%30.01 "HgN/A
7:30 AM82 °FPartly sunny.9 mph66%30.01 "HgN/A
7:00 AM81 °FScattered clouds.8 mph70%30.01 "HgN/A
6:30 AM79 °FPartly sunny.7 mph70%29.98 "HgN/A
6:00 AM79 °FPartly sunny.7 mph70%29.98 "HgN/A
5:30 AM79 °FWarm.8 mph70%29.95 "HgN/A
5:00 AM79 °FWarm.8 mph70%29.95 "HgN/A
4:30 AM79 °FWarm.10 mph70%29.95 "HgN/A
4:00 AM79 °FWarm.9 mph70%29.92 "HgN/A
3:30 AM79 °FClear.8 mph70%29.92 "HgN/A
3:00 AM79 °FPassing clouds.9 mph70%29.92 "HgN/A
2:30 AM79 °FPassing clouds.9 mph70%29.92 "HgN/A
2:00 AM79 °FPassing clouds.10 mph70%29.92 "HgN/A
1:30 AM79 °FPassing clouds.10 mph74%29.95 "HgN/A
1:00 AM79 °FPassing clouds.13 mph79%29.95 "HgN/A
12:30 AM79 °FPassing clouds.15 mph79%29.98 "HgN/A
12:00 AM79 °FPassing clouds.9 mph74%29.98 "HgN/A
11:30 PM
Sep 22
79 °FPassing clouds.12 mph74%29.98 "HgN/A
11:00 PM79 °FPassing clouds.8 mph74%30.01 "HgN/A
10:30 PM79 °FPassing clouds.10 mph74%30.01 "HgN/A
10:00 PM79 °FPassing clouds.13 mph74%30.01 "HgN/A
9:30 PM81 °FPassing clouds.10 mph66%30.01 "HgN/A
9:00 PM79 °FPassing clouds.8 mph74%30.01 "HgN/A
8:30 PM79 °FPassing clouds.7 mph74%29.98 "HgN/A
8:00 PM81 °FPassing clouds.6 mph70%29.98 "HgN/A
7:30 PM81 °FPassing clouds.10 mph74%29.98 "HgN/A
7:00 PM79 °FPassing clouds.8 mph79%29.98 "HgN/A
6:30 PM81 °FPassing clouds.13 mph70%29.95 "HgN/A
6:00 PM81 °FPassing clouds.16 mph70%29.95 "HgN/A
5:30 PM82 °FPartly sunny.16 mph66%29.95 "HgN/A
5:00 PM82 °FPartly sunny.14 mph70%29.92 "HgN/A
4:30 PM82 °FPartly sunny.15 mph70%29.92 "HgN/A
4:00 PM82 °FBroken clouds.18 mph74%29.92 "HgN/A
Weather by CustomWeather, © 2014

See weather overviewHow to use our weather pages